Regional Weather Roundup
Issued by NWS

Home | Current Version | Previous Version | Graphics & Text | Print | Product List | Glossary On
Versions: 1 2 3 4 5 6 7 8 9 10 11 12 13 14 15 16 17 18 19 20 21 22 23 24 25 26 27 28 29 30 31 32 33 34 35 36 37 38 39 40 41 42 43 44 45 46 47 48 49 50
000
ASUS43 KMKX 220311
RWRWI

WISCONSIN REGIONAL WEATHER ROUNDUP
NATIONAL WEATHER SERVICE MILWAUKEE/SULLIVAN WI
1000 PM CDT SUN SEP 21 2014

NOTE: "FAIR" INDICATES FEW OR NO CLOUDS BELOW 12,000 FEET WITH NO
SIGNIFICANT WEATHER AND/OR OBSTRUCTIONS TO VISIBILITY.

WIZ001-002-006>008-014>016-023>028-220400-
NORTHWEST WISCONSIN

CITY           SKY/WX    TMP DP  RH WIND       PRES   REMARKS
SUPERIOR ARPT  CLEAR     45  44  98 CALM      30.19R
ASHLAND        CLEAR     44  43  96 SW5       30.18S
HAYWARD        CLEAR     44  42  93 CALM      30.19R
SIREN          CLEAR     47  45  95 CALM      30.20S
RICE LAKE      CLEAR     48  46  93 CALM      30.21R
LADYSMITH      CLEAR     44  43  93 CALM      30.20R
EAU CLAIRE     CLEAR     47  44  90 CALM      30.19R
MENOMONIE      CLEAR     52  46  78 W3        30.20R
NEW RICHMOND   CLEAR     47  46  95 CALM      30.21R
OSCEOLA        CLEAR     49  48  97 CALM      30.23R
$$

WIZ003>005-009-010-017-018-220400-
NORTH CENTRAL WISCONSIN

CITY           SKY/WX    TMP DP  RH WIND       PRES   REMARKS
WOODRUFF       CLEAR     41  39  92 CALM      30.16S
RHINELANDER    CLEAR     37  35  92 W3        30.17R
EAGLE RIVER    CLEAR     36  36 100 CALM      30.15S
LAND O LAKES   CLEAR     41  37  85 CALM      30.16R
PHILLIPS       CLEAR     40  39  99 CALM      30.17S
TOMAHAWK       CLEAR     35  34  95 CALM      30.18R
MEDFORD        CLEAR     39  39  99 CALM      30.18R
MERRILL        CLEAR     38  37  96 CALM      30.18R
$$

WIZ029-030-035-036-043>047-220400-
CENTRAL WISCONSIN

CITY           SKY/WX    TMP DP  RH WIND       PRES   REMARKS
WAUSAU         CLEAR     45  40  82 NW3       30.17R
MOSINEE        CLEAR     45  41  87 W6        30.18R
MARSHFIELD     CLEAR     47  39  74 CALM      30.18R
STEVENS POINT  CLEAR     44  39  84 CALM      30.18S
WAUPACA        CLEAR     48  41  77 NW3       30.18R
WAUTOMA        CLEAR     49  42  76 N3        30.19R
WISC RAPIDS    CLEAR     46  40  79 N3        30.20R
CAMP DOUGLAS   CLEAR     44  44 100 CALM      30.19R
$$

WIZ011>013-019>022-031-037>040-048>050-220400-
NORTHEAST WISCONSIN

CITY           SKY/WX    TMP DP  RH WIND       PRES   REMARKS
ANTIGO         CLEAR     40  38  94 NW3       30.17R
STURGEON BAY   CLEAR     46  37  71 N10       30.14S
GREEN BAY      CLEAR     45  40  82 NW5       30.16R
MANITOWOC      CLEAR     45  42  89 CALM      30.15R
APPLETON       PTCLDY    45  37  76 NW6       30.17R
CLINTONVILLE   CLEAR     45  41  87 CALM      30.16S
OSHKOSH        CLEAR     48  40  73 N8        30.16R
$$

WIZ032>034-041-042-053>061-220400-
SOUTHWEST WISCONSIN

CITY           SKY/WX    TMP DP  RH WIND       PRES   REMARKS
LA CROSSE      CLEAR     54  46  74 N5        30.19R
SPARTA         CLEAR     45  43  93 CALM      30.21R
VIROQUA        FAIR      50  45  83 N5        30.20R
BOSCOBEL       CLEAR     49  46  90 CALM      30.19R FOG
PRAIRIE DU CHI CLEAR     51  48  89 CALM      30.19R
PLATTEVILLE    FAIR      51  47  83 NW5       30.18R
$$

WIZ056-057-062-063-064-067-068-220400-
SOUTH CENTRAL WISCONSIN

CITY           SKY/WX    TMP DP  RH WIND       PRES   REMARKS
BARABOO/DELLS  CLEAR     51  42  71 CALM      30.18R
LONE ROCK      CLEAR     53  46  77 CALM      30.18R
WATERTOWN      CLEAR     49  44  83 N3        30.15R
MADISON        CLEAR     50  44  80 N5        30.16R
MIDDLETON      FAIR      49  44  80 CALM      30.17R
MONROE         CLEAR     54  45  71 N7        30.16R
JANESVILLE     CLEAR     50  45  81 CALM      30.14R
$$

WIZ051-052-058>065-066-070>072-220400-
SOUTHEAST WISCONSIN

CITY           SKY/WX    TMP DP  RH WIND       PRES   REMARKS
MILWAUKEE      CLEAR     52  41  66 N9        30.14R
WAUKESHA       CLEAR     45  43  93 CALM      30.16R
MILWAUKEE/TIMM CLEAR     46  41  81 N3        30.15R
RACINE         CLEAR     51  42  71 NW6       30.15R
BURLINGTON     CLEAR     42  42  99 CALM      30.14R
KENOSHA        CLEAR     50  43  77 N6        30.14R
FOND DU LAC    CLEAR     47  40  76 NW6       30.16R
SHEBOYGAN      CLEAR     45  41  86 CALM      30.15R
WEST BEND      CLEAR     46  39  76 N6        30.16R
JUNEAU         CLEAR     46  42  85 N6        30.18R
$$

LSZ147-162-220400-
LAKE SUPERIOR

STATION/POSITION TIME  TEMP    WIND        PRES    WAVE
                       AIR SEA DIR/SP/G            HT/PER
                 (UTC) (F)     (DEG/KT/KT) (MB)    (FT/S)
W MID LAKE BUOY  0250   49 48  250/  8/  8 1020.5S   2/ 6
DEVILS ISLAND    0300   54     280/ 10/ 10 1021.5S
PORT WING        0200   50     140/  3/  4 1021.7R
SAXON HARBOR     0200   47     190/  3/  7 1021.3R
$$

LMZ867-665-643>646-220400-
LAKE MICHIGAN

STATION/POSITION TIME  TEMP    WIND        PRES    WAVE
                       AIR SEA DIR/SP/G            HT/PER
                 (UTC) (F)     (DEG/KT/KT) (MB)    (FT/S)
N MID LAKE BUOY  0250   49 57  350/ 21/ 27 1019.3R   5/ 6
NORTHPORT PIER   0200   49     330/ 22/ 27 1020.0R
KEWAUNEE LAKESHO 0200   47     350/  5/  6 1019.4R
SHEBOYGAN LAKESH 0300   51 51  340/  8/ 10 1021.5R
PORT WASHINGTON  0240   51     330/  3/  5 1021.3R
ATWATER BUOY     0300   55     350/ 14/ 17 1021.4R
MILWAUKEE LAKESH 0200   54     340/  8/ 10   N/A
S MID LAKE BUOY  0250   55 61  350/ 19/ 23 1019.7R   7/ 6
KENOSHA   LAKESH 0300   53     330/  8/ 11 1020.3R
$$

TC  - TEMPERATURE IN CELSIUS
VSB - VISIBILITY IN STATUTE MILES
WCI - WIND CHILL INDEX
HX  - HEAT INDEX




USA.gov is the U.S. government's official web portal to all federal, state and local government web resources and services.